Погода в Фувахмулахе

Мальдивы     0°17′51″N   73°25′25″E
темп.,
°C
ветер,
м/с
пор.,
м/с
влажн.,
%
обл.,
%
осадки,
мм/ч
давл.,
гПа
погр.,
м
14 мая, пт
пт1423:00+28юз567952 3.7 1008451
02:00+28ююз6680100 3.7 1006476
05:00+28ююз778056 7.0 1006603
08:00+28ю6677100 3.0 1008767
11:00+28ююз4480100 7.7 1008237
14:00+29ююз3471100 1.6 1005621
17:00+28юз557698 4.8 1006374
20:00+27зюз6583100 5.9 1008463
15 мая, сб
сб1523:00+26зсз5592100 16.1 1008487
02:00+25з81095100 47.3 1004634
05:00+25з81286100 87.9 1006890
08:00+28з101278100 3.4 10071177
11:00+27з101284100 7.0 1007906
14:00+28зюз111380100 4.1 10041083
17:00+28зюз101179100 5.4 1005990
20:00+28з7778100 1.6 1008836
16 мая, вс
вс1623:00+28з6781100 3.9 1008777
02:00+28з7882100 2.7 1005751
05:00+29з7877100 4.7 1005893
08:00+29з7875100 1.0 1007858
11:00+29зюз897695 1.1 1007837
14:00+29з787357 0.1 1005816
17:00+29з677488 0.6 1005909
20:00+29з5675100 2.0 1008620
17 мая, пн
пн1723:00+29з5672100 2.3 1008851
02:00+28з5678100 2.4 1005583
05:00+29зсз677699 2.8 1006961
08:00+29зсз6775100 0.3 1008805
11:00+30зсз6774100 0.9 1008858
14:00+29зсз6777100 0.4 1006857
17:00+29зсз6777100 1.6 1006848
20:00+30зсз7876100 0.6 1008913
18 мая, вт
вт1823:00+30зсз6877100 0.6 1008939
02:00+29зсз6777100 0.6 1007894
05:00+29зсз67765 1.3 1007828
08:00+29зсз567695 0.0 1008821
11:00+30зсз5676100 0.1 1008788
14:00+29зсз5676100 0.2 1006826
17:00+30з6672100 0.3 10071002
20:00+30з6772100 0.0 1009990